Location: Forst
(46.9333°N, 15.4333°E)
Time: 13:29:31
(UTC+00:00)

Cosmos 1782 - Pass Details

Date: 01 December 2020
Orbit: 537 x 551 km, 82.5° (Epoch: 27 January)

Event Time Altitude Azimuth Distance (km) Brightness Sun altitude
Rises 16:18:58 0° 172° (S) 2,683 6.5 -11.2°
Reaches altitude 10° 16:21:10 10° 166° (SSE) 1,798 5.5 -11.5°
Maximum altitude 16:24:56 44° 93° (E) 758 3.1 -12.2°
Drops below altitude 10° 16:28:45 10° 21° (NNE) 1,822 5.1 -12.8°
Enters shadow 16:29:17 - 19° (NNE) 2,033 5.4 -12.9°
